User: anonymous   Login
Location: Caltech
(34.1382°N, 118.1253°W)
Time: 16:51:34
(UTC-07:00)
Language:

OAO 2 Rocket - Orbit

View from above orbital plane
View from above orbital plane
View from above satellite
View from above satellite

Ground track
Ground track

The orbit data is extracted from the following two-line orbital elements,

1 03598U 68110B   14295.46327130  .00000948  00000-0  22385-3 0  7439
2 03598 034.9950 045.9388 0050229 291.5520 148.4171 14.53748001425398
Epoch (UTC): 22 October 2014 11:07:06
Eccentricity: 0.0050229
inclination: 34.9950°
perigee height: 678 km
apogee height: 749 km
right ascension of ascending node: 45.9388°
argument of perigee: 291.5520°
revolutions per day: 14.53748001
mean anomaly at epoch: 148.4171°
orbit number at epoch: 42539

The dashed part of the orbit path shows where the satellite is in the earth's shadow,  

DLR